Location: G?julap?du
(16.5372°N, 81.0979°E)
Time: 11:00:28
(UTC+00:00)

CZ-2C R/B - Pass Details

Date: 14 April 2026
Orbit: 662 x 774 km, 98.5° (Epoch: 12 May)

Event Time Altitude Azimuth Distance (km) Brightness Sun altitude
Rises 23:00:36 0° 1° (N) 3,132 5.9 -19.5°
Reaches altitude 10° 23:03:00 10° 355° (N) 2,192 5.0 -18.9°
Maximum altitude 23:07:30 42° 285° (WNW) 994 2.7 -17.9°
Enters shadow 23:09:04 31° 240° (WSW) 1,198 3.0 -17.5°
